[[{"header":{"parameterUnit":"m.s-1","parameterCategory":1,"la1":30.2991,"la2":30.254,"lo1":-89.0895,"lo2":-89.0444,"dy":0.0017,"dx":0.0017,"nx":28,"ny":28,"refTime":"2023-08-23T03:00:00:Z","depth":0,"parameterNumber":2,"parameterNumberName":"U-component_of_WINDS"},"data":[0,0,0,0,0,0,0,0,0,0,0,0,0,0,0,0,0,0,0,0,0,0,0,0,0,0,0,0,0,0,0,0,0,0,0,0,0,0,0,0,0,0,0,0,0,0,0,0,0,0,0,0,0,0,0,0,0,0,0.136,0.1361,0,0.1443,0.1443,0.1444,0.1495,0.1496,0.1496,0.1496,0.1579,0.1581,0.1583,0,0,0,0,0,0,0,0,0,0,0,0,0,0.1244,0.1246,0.136,0.1361,0.1362,0.1442,0.1443,0.1445,0.1495,0.1496,0.1496,0.1496,0.1579,0.1581,0.1583,0,0,0,0,0,0,0,0,0,0,0,0,0,0.1307,0.1247,0.136,0.1397,0.1401,0.1442,0.1444,0.1445,0.1495,0.1496,0.1496,0.1496,0.1578,0.1581,0.1584,0.1593,0,0,0.1593,0.1594,0,0,0,0,0,0,0,0,0.1304,0.1311,0.1391,0.1395,0.14,0.1459,0.1433,0.1495,0.1495,0.146,0.1496,0.1497,0.1539,0.1545,0.156,0.1597,0.1601,0.1593,0.1595,0.1596,0.1597,0,0,0,0,0,0,0,0.1299,0.1308,0.1393,0.1392,0.1397,0.1409,0.1418,0.1445,0.1496,0.1463,0.1467,0.1476,0.1541,0.1557,0.1562,0.1602,0.1593,0.1595,0.1597,0.1598,0.1649,0.1648,0,0,0,0,0,0,0.1289,0.1304,0.139,0.1395,0.1352,0.1411,0.1421,0.144,0.1496,0.1505,0.1475,0.1478,0.1551,0.1558,0.1565,0.1578,0.1596,0.1599,0.16,0.1649,0.1649,0.1648,0,0,0,0,0,0,0.1286,0.1296,0.1387,0.1351,0.1363,0.1412,0.1432,0.1441,0.1456,0.1505,0.1514,0.1482,0.1552,0.1561,0.1585,0.1582,0.16,0.1603,0.165,0.1649,0.1649,0.1606,0,0,0,0,0,0,0.1283,0.1295,0.13,0.1351,0.1365,0.1407,0.1432,0.1442,0.1461,0.1465,0.1514,0.1522,0.1553,0.1581,0.1588,0.1586,0.1605,0.165,0.1649,0.1649,0.1608,0.1604,0.1601,0,0,0,0,0,0.1279,0.1285,0.13,0.131,0.1372,0.1406,0.1415,0.145,0.1461,0.1466,0.1497,0.1521,0.1581,0.1583,0.1592,0.1591,0.1651,0.165,0.1649,0.161,0.1605,0.1601,0,0,0,0,0,0,0.1234,0.1293,0.131,0.1333,0.1364,0.1415,0.1423,0.1445,0.1473,0.1476,0.1519,0.1529,0.1549,0.1572,0.1573,0.1602,0.1618,0.1619,0.1586,0.1581,0.1578,0.1572,0.1607,0,0,0,0,0,0.1226,0.125,0.13,0.1316,0.133,0.1373,0.139,0.1414,0.1448,0.1461,0.1494,0.1526,0.1552,0.1568,0.1595,0.1611,0.1622,0.1615,0.1611,0.1608,0.1608,0.1616,0.1613,0.1645,0.1645,0.1645,0,0,0.1212,0.1247,0.1259,0.1307,0.1335,0.1356,0.1384,0.1407,0.1423,0.1465,0.149,0.1514,0.1552,0.1572,0.1583,0.1592,0.1601,0.1607,0.1604,0.1606,0.1615,0.1612,0.1609,0.1645,0.1645,0.1645,0,0,0.1196,0.1226,0.1241,0.1267,0.1308,0.1336,0.1339,0.1386,0.1404,0.143,0.146,0.148,0.1524,0.1549,0.1567,0.1558,0.158,0.1565,0.1547,0.1554,0.1551,0.1549,0.1544,0.1542,0.1565,0.1565,0.1565,0,0.1173,0.1209,0.1246,0.1267,0.1286,0.1324,0.1339,0.1362,0.1409,0.142,0.1431,0.1485,0.1514,0.1539,0.1536,0.155,0.1554,0.156,0.1549,0.1547,0.1546,0.1542,0.154,0.1563,0.1563,0.1564,0.1564,0,0.1177,0.1201,0.1208,0.1252,0.1272,0.1289,0.1328,0.1344,0.1366,0.1392,0.1416,0.1451,0.1484,0.1492,0.1514,0.152,0.1524,0.1541,0.1559,0.154,0.1537,0.1535,0.156,0.1561,0.1562,0.1562,0,0,0.1137,0.12,0.1202,0.1221,0.1267,0.1285,0.1303,0.1336,0.1347,0.1377,0.1392,0.1428,0.1443,0.1463,0.1488,0.1495,0.1483,0.1511,0.1512,0.1503,0.1488,0.1475,0.1472,0.1498,0.1498,0.1498,0.1485,0,0.1128,0.1163,0.1196,0.1219,0.124,0.1275,0.129,0.1319,0.1343,0.1364,0.1391,0.1414,0.1433,0.1446,0.1454,0.1483,0.148,0.1484,0.1511,0.1511,0.15,0.1471,0.1458,0.1444,0.1484,0.1484,0.1484,0,0.1123,0.115,0.1175,0.1216,0.1226,0.124,0.127,0.129,0.1322,0.134,0.1361,0.1387,0.1406,0.1421,0.1446,0.1448,0.1461,0.1476,0.1476,0.148,0.1496,0.1473,0.1441,0.1438,0.1482,0.1482,0.1482,0,0.1089,0.1133,0.1153,0.1168,0.1217,0.1225,0.1246,0.1279,0.1295,0.1322,0.1333,0.1361,0.1376,0.1397,0.1429,0.1437,0.145,0.1469,0.1464,0.1463,0.1465,0.1464,0.1433,0.1474,0.1474,0.1474,0.1474,0,0.1075,0.1088,0.1138,0.115,0.1165,0.1202,0.1215,0.1239,0.1267,0.1283,0.1315,0.1329,0.1371,0.139,0.1415,0.1431,0.1438,0.1451,0.1457,0.1448,0.1446,0.1457,0.1458,0.1474,0.1474,0.1474,0.1474,0,0.1041,0.1075,0.1099,0.1143,0.1154,0.1163,0.12,0.1212,0.1237,0.1256,0.1263,0.1303,0.1326,0.136,0.1394,0.141,0.1422,0.1433,0.1411,0.1414,0.1407,0.1407,0.1382,0.1379,0.1422,0.1421,0.1421,0,0.103,0.1041,0.1085,0.1098,0.1118,0.1138,0.1155,0.1191,0.1206,0.1242,0.1249,0.1275,0.1297,0.1332,0.1363,0.1388,0.14,0.1389,0.1404,0.1393,0.1398,0.1396,0.1397,0.1385,0.1385,0.1384,0.1384,0,0.1006,0.1021,0.1044,0.1072,0.109,0.1114,0.1139,0.1147,0.1188,0.1204,0.1228,0.1245,0.1278,0.1302,0.1331,0.1351,0.1373,0.1379,0.1379,0.1369,0.1355,0.1361,0.14,0.1379,0.138,0.138,0.138,0.138,0.0982,0.0992,0.1024,0.1048,0.107,0.1092,0.1105,0.1131,0.1152,0.1181,0.1201,0.1223,0.1252,0.1293,0.1312,0.1329,0.1339,0.1339,0.1339,0.1338,0.1334,0.1352,0.1334,0.1335,0.1335,0.1335,0.1335,0,0.0958,0.098,0.1001,0.1035,0.1052,0.1072,0.1099,0.1113,0.1132,0.1157,0.1178,0.1204,0.1227,0.1259,0.1283,0.1291,0.1301,0.1296,0.1295,0.1299,0.1325,0.1322,0.1287,0.1287,0.1287,0.1287,0.1287,0.1287,0.0948,0.0966,0.0984,0.1012,0.1034,0.1056,0.107,0.1089,0.111,0.1137,0.1156,0.1177,0.1204,0.123,0.1251,0.126,0.1267,0.1258,0.127,0.1293,0.1298,0.1302,0.1299,0.126,0.126,0.1243,0.1242,0.1242]},{"header":{"parameterUnit":"m.s-1","parameterCategory":1,"la1":30.2991,"la2":30.254,"lo1":-89.0895,"lo2":-89.0444,"dy":0.0017,"dx":0.0017,"nx":28,"ny":28,"refTime":"2023-08-23T03:00:00:Z","depth":0,"parameterNumber":3,"parameterNumberName":"V-component_of_WINDS"},"data":[0,0,0,0,0,0,0,0,0,0,0,0,0,0,0,0,0,0,0,0,0,0,0,0,0,0,0,0,0,0,0,0,0,0,0,0,0,0,0,0,0,0,0,0,0,0,0,0,0,0,0,0,0,0,0,0,0,0,2.8415,2.8415,0,2.8332,2.8331,2.833,2.8312,2.8313,2.8313,2.8314,2.8222,2.8219,2.8216,0,0,0,0,0,0,0,0,0,0,0,0,0,2.8555,2.8552,2.8416,2.8414,2.8413,2.8332,2.8331,2.8329,2.8312,2.8313,2.8314,2.8314,2.8223,2.8219,2.8215,0,0,0,0,0,0,0,0,0,0,0,0,0,2.8485,2.8552,2.8416,2.8395,2.8392,2.8332,2.833,2.8329,2.8312,2.8313,2.8314,2.8315,2.8224,2.8219,2.8215,2.8167,0,0,2.8201,2.8199,0,0,0,0,0,0,0,0,2.8489,2.848,2.8399,2.8396,2.8393,2.8333,2.8346,2.8274,2.8312,2.8342,2.8314,2.8315,2.8258,2.825,2.8232,2.8163,2.8159,2.82,2.8197,2.8196,2.8194,0,0,0,0,0,0,0,2.8494,2.8483,2.8382,2.8398,2.8394,2.8388,2.8379,2.8332,2.8295,2.834,2.8338,2.8329,2.8256,2.8237,2.823,2.8157,2.82,2.8196,2.8193,2.8192,2.8044,2.8042,0,0,0,0,0,0,2.8503,2.8487,2.8385,2.838,2.8445,2.8385,2.8375,2.8352,2.8296,2.8288,2.8328,2.8328,2.8244,2.8235,2.8226,2.8166,2.8196,2.8191,2.8189,2.8045,2.8043,2.8042,0,0,0,0,0,0,2.8506,2.8494,2.8388,2.8433,2.8419,2.8381,2.8355,2.8349,2.833,2.8287,2.828,2.8315,2.8244,2.8233,2.8182,2.8163,2.8189,2.8185,2.8046,2.8044,2.8043,2.8046,0,0,0,0,0,0,2.851,2.8495,2.8478,2.8433,2.8417,2.8347,2.8354,2.8347,2.8323,2.8322,2.8273,2.8266,2.8244,2.8189,2.8178,2.8157,2.8181,2.8048,2.8045,2.8043,2.8047,2.8045,2.8042,0,0,0,0,0,2.8515,2.8481,2.8477,2.8465,2.8395,2.8346,2.8336,2.8314,2.8321,2.8303,2.8275,2.8267,2.8167,2.8184,2.8171,2.8149,2.8049,2.8046,2.8043,2.8049,2.8045,2.8042,0,0,0,0,0,0,2.8522,2.8475,2.847,2.842,2.8388,2.8343,2.8319,2.8311,2.8274,2.8275,2.8247,2.8236,2.8186,2.8162,2.8182,2.8099,2.8108,2.8103,2.8117,2.8113,2.811,2.8116,2.8178,0,0,0,0,0,2.8519,2.8485,2.8444,2.8404,2.8388,2.8357,2.8334,2.832,2.8284,2.827,2.8238,2.8202,2.8162,2.8136,2.8097,2.8044,2.8033,2.8023,2.802,2.8018,2.8013,2.7983,2.7977,2.8033,2.8033,2.8033,0,0,2.8509,2.8479,2.8459,2.8405,2.8378,2.8342,2.8345,2.8306,2.8279,2.8263,2.8214,2.819,2.8147,2.8095,2.807,2.8073,2.7996,2.8015,2.8014,2.8009,2.7979,2.7974,2.7969,2.8032,2.8032,2.8032,0,0,2.8474,2.8449,2.8413,2.8386,2.8346,2.8325,2.8317,2.8274,2.8258,2.8208,2.8196,2.8162,2.8094,2.8064,2.804,2.7995,2.7986,2.7983,2.7968,2.7939,2.7935,2.7931,2.7914,2.7908,2.7979,2.7979,2.7979,0,2.8467,2.8414,2.8394,2.8357,2.8333,2.832,2.8282,2.8256,2.8205,2.8187,2.8193,2.8108,2.8078,2.8019,2.8008,2.7989,2.7977,2.7988,2.7937,2.7933,2.7929,2.7912,2.7906,2.7978,2.7978,2.7978,2.7978,0,2.8407,2.8371,2.8346,2.8299,2.8272,2.8235,2.8208,2.8183,2.8171,2.8149,2.8099,2.8063,2.8017,2.8002,2.7989,2.794,2.7944,2.7944,2.7951,2.7924,2.7908,2.7901,2.7978,2.7978,2.7978,2.7978,0,0,2.8373,2.8317,2.8308,2.8286,2.8242,2.8212,2.8173,2.813,2.8109,2.8074,2.804,2.7984,2.7983,2.7956,2.794,2.7915,2.788,2.7917,2.7916,2.7911,2.7823,2.7823,2.7816,2.7875,2.7874,2.7873,2.7826,0,2.8331,2.8264,2.8246,2.8188,2.8153,2.8141,2.8107,2.8075,2.8054,2.802,2.7996,2.7956,2.796,2.7943,2.7918,2.789,2.7862,2.7893,2.7841,2.7839,2.7851,2.7807,2.7807,2.7765,2.782,2.7819,2.7818,0,2.8274,2.824,2.818,2.814,2.8125,2.8095,2.8054,2.8023,2.7986,2.7972,2.7943,2.7929,2.7887,2.7899,2.7839,2.7861,2.7838,2.7822,2.7819,2.7812,2.7826,2.7798,2.7751,2.7744,2.7808,2.7809,2.781,0,2.8253,2.8193,2.8149,2.8131,2.8084,2.8063,2.8042,2.8006,2.7982,2.7945,2.7929,2.7887,2.7864,2.7832,2.7807,2.7818,2.7749,2.7759,2.7735,2.7735,2.7719,2.772,2.7667,2.7707,2.7707,2.7708,2.7708,0,2.8208,2.8172,2.8139,2.8112,2.807,2.8049,2.8007,2.7985,2.7954,2.7921,2.7907,2.7876,2.7846,2.7811,2.7791,2.7744,2.7734,2.772,2.7715,2.7721,2.7722,2.7704,2.7706,2.7706,2.7706,2.7707,2.7707,0,2.8178,2.8155,2.8106,2.8066,2.8055,2.8026,2.7991,2.7963,2.7943,2.7901,2.789,2.7856,2.7814,2.7787,2.7732,2.7719,2.7667,2.7663,2.768,2.7677,2.7654,2.7657,2.7586,2.7575,2.7625,2.7624,2.7624,0,2.815,2.8122,2.808,2.8058,2.8037,2.8002,2.7977,2.7955,2.7929,2.7886,2.7863,2.782,2.7785,2.7717,2.7687,2.7645,2.7639,2.7617,2.7632,2.7639,2.7637,2.7639,2.7635,2.7614,2.7614,2.7614,2.7613,0,2.8103,2.8093,2.806,2.8022,2.7994,2.7963,2.7931,2.7913,2.7885,2.7857,2.7815,2.7788,2.7733,2.769,2.7646,2.7622,2.7612,2.7609,2.7601,2.7606,2.7617,2.761,2.7672,2.7611,2.7611,2.7611,2.7611,2.7611,2.8072,2.8046,2.8013,2.7976,2.795,2.7922,2.7894,2.787,2.7836,2.7791,2.7779,2.7735,2.7698,2.7638,2.7613,2.7577,2.7579,2.7568,2.7565,2.7562,2.7561,2.7624,2.7569,2.7569,2.7569,2.7569,2.7569,0,2.8023,2.8002,2.7968,2.7925,2.7896,2.7893,2.7858,2.7832,2.7794,2.7762,2.7728,2.7679,2.7638,2.7605,2.7562,2.7539,2.7534,2.7528,2.7529,2.7524,2.7562,2.7573,2.7534,2.7534,2.7534,2.7534,2.7534,2.7534,2.7994,2.7951,2.7937,2.7881,2.7858,2.7817,2.7797,2.777,2.7744,2.7691,2.7657,2.7637,2.7604,2.7559,2.752,2.7511,2.7495,2.7491,2.7481,2.7517,2.7521,2.7525,2.7535,2.7488,2.7488,2.7446,2.7445,2.7445]}]]